This demonstration page uses our WeatherBlox Daily Observations layout. Learn more.

Left ArrowRight Arrow

Hourly Observations for June 24, 2021

Temp ( °F °C ) Dew Point ( °F °C ) Humidity (%) Winds ( mph kmh ) Pressure ( in mb ) Visibility ( mi km ) Precip ( " mm )
12:15 am 00:15 Clear 79 26 70 21.1 74 74 ESE 7 11 29.59 1002 10 16 N/A
12:35 am 00:35 Clear 79 25.9 70 21 74 74 SE 6 9 29.60 1002 10 16 N/A
12:55 am 00:55 Clear 78 25.5 70 21 76 76 N N/A 29.62 1003 10 16 N/A
1:15 am 01:15 Clear 75 24.1 70 21.1 83 83 N N/A 29.63 1003 10 16 N/A
1:35 am 01:35 Clear 75 24.1 70 21.2 84 84 NNW 8 13 29.66 1004 10 16 N/A
1:55 am 01:55 Clear 76 24.5 70 21.2 82 82 N N/A 29.64 1004 10 16 N/A
2:15 am 02:15 Clear 75 24 70 21.1 84 84 E 5 7 29.64 1004 10 16 N/A
2:35 am 02:35 Partly Cloudy 76 24.3 70 21.2 83 83 ENE 10 17 29.65 1004 10 16 N/A
2:55 am 02:55 Partly Cloudy 77 25.1 70 21 78 78 E 12 19 29.64 1004 10 16 N/A
3:15 am 03:15 Clear with Nearby Thunderstorms 77 25 70 20.9 78 78 E 12 19 29.64 1004 10 16 N/A
3:35 am 03:35 Partly Cloudy with Nearby Thunderstorms 73 22.9 65 18.2 75 75 ENE 26 43 29.69 1005 10 16 N/A
3:55 am 03:55 Clear 69 20.4 63 17 81 81 ENE 22 35 29.71 1006 10 16 N/A
4:15 am 04:15 Clear 68 20.2 62 16.5 79 79 E 20 31 29.69 1005 10 16 N/A
4:35 am 04:35 Clear 68 20.2 62 16.5 79 79 E 15 24 29.69 1005 10 16 N/A
4:55 am 04:55 Clear 69 20.4 61 16.3 77 77 ESE 14 22 29.69 1005 10 16 N/A
5:15 am 05:15 Clear 68 20.1 62 16.6 80 80 ESE 18 30 29.69 1005 10 16 N/A
5:35 am 05:35 Clear 68 19.8 62 16.9 83 83 SE 16 26 29.69 1006 10 16 N/A
5:55 am 05:55 Clear 68 19.9 63 17.1 84 84 ESE 12 19 29.70 1006 10 16 N/A
6:15 am 06:15 Sunny 68 20.2 63 17 82 82 ESE 9 15 29.71 1006 10 16 N/A
6:35 am 06:35 Sunny 69 20.3 63 17.2 82 82 E 9 15 29.72 1006 10 16 N/A
6:55 am 06:55 Sunny 69 20.5 64 17.5 83 83 E 9 15 29.73 1007 10 16 N/A
7:15 am 07:15 Sunny 69 20.5 64 17.6 84 84 ENE 7 11 29.74 1007 10 16 N/A
7:35 am 07:35 Sunny 69 20.6 64 17.7 84 84 E 6 9 29.74 1007 10 16 N/A
7:55 am 07:55 Sunny 70 21 64 17.8 82 82 N N/A 29.75 1008 10 16 N/A
8:15 am 08:15 Sunny 70 21.1 64 18 83 83 NE 3 6 29.76 1008 10 16 N/A
8:35 am 08:35 Sunny 70 21.1 65 18.2 84 84 NNW 5 7 29.77 1008 10 16 N/A
8:55 am 08:55 Sunny 72 22.2 65 18.3 79 79 N 6 9 29.78 1009 10 16 N/A
9:15 am 09:15 Sunny 72 22.2 65 18.3 79 79 N N/A 29.78 1009 7 11 N/A
9:35 am 09:35 Sunny 73 22.9 65 18.6 77 77 NW 3 6 29.78 1008 10 16 N/A
9:55 am 09:55 Sunny 73 23 66 18.7 77 77 W 3 6 29.77 1008 10 16 N/A
10:15 am 10:15 Sunny 73 23 66 18.7 77 77 N N/A 29.78 1008 10 16 N/A
10:35 am 10:35 Sunny 74 23.6 66 19.1 76 76 N 6 9 29.78 1009 10 16 N/A
10:55 am 10:55 Mostly Cloudy 74 23.5 67 19.2 77 77 NNE 14 22 29.78 1009 10 16 N/A
11:15 am 11:15 Cloudy 76 24.6 67 19.6 74 74 NE 12 19 29.78 1009 10 16 N/A
11:35 am 11:35 Cloudy 76 24.5 67 19.2 72 72 NE 14 22 29.78 1009 10 16 N/A
11:55 am 11:55 Cloudy 76 24.7 66 19 71 71 ENE 13 20 29.79 1009 10 16 N/A
12:15 pm 12:15 Cloudy 77 25.1 66 19.1 69 69 NE 16 26 29.78 1008 10 16 N/A
12:35 pm 12:35 Cloudy 78 25.3 66 19.1 69 69 ENE 15 24 29.78 1008 10 16 N/A
12:55 pm 12:55 Cloudy 78 25.8 67 19.4 68 68 NE 13 20 29.77 1008 10 16 N/A
1:15 pm 13:15 Mostly Cloudy 78 25.4 67 19.6 70 70 ENE 13 20 29.78 1008 10 16 N/A
1:35 pm 13:35 Partly Cloudy 77 25.1 67 19.6 72 72 NE 14 22 29.77 1008 10 16 N/A
1:55 pm 13:55 Sunny 76 24.7 67 19.6 73 73 ENE 10 17 29.79 1009 10 16 N/A
2:15 pm 14:15 Partly Cloudy 76 24.6 67 19.6 74 74 E 6 9 29.81 1010 10 16 N/A
2:35 pm 14:35 Cloudy 77 24.9 68 19.8 73 73 E 9 15 29.80 1009 10 16 N/A
2:55 pm 14:55 Mostly Cloudy 78 25.3 68 20 73 73 E 9 15 29.80 1009 10 16 N/A
3:15 pm 15:15 Sunny 78 25.7 68 20 71 71 NE 9 15 29.78 1009 10 16 N/A
3:35 pm 15:35 Sunny 80 26.4 69 20.4 70 70 NE 13 20 29.76 1008 10 16 N/A
3:55 pm 15:55 Partly Cloudy 81 27.1 69 20.3 66 66 NE 13 20 29.75 1008 10 16 N/A
4:15 pm 16:15 Mostly Cloudy 81 27.4 68 20.1 64 64 NE 12 19 29.74 1007 10 16 N/A
4:35 pm 16:35 Partly Cloudy 82 27.8 68 19.9 62 62 NE 12 19 29.72 1006 10 16 N/A
4:55 pm 16:55 Sunny 82 27.6 67 19.3 61 61 ENE 12 19 29.70 1006 7 11 N/A
5:15 pm 17:15 Sunny 84 28.8 67 19.4 57 57 E 10 17 29.69 1005 10 16 N/A
5:35 pm 17:35 Sunny 84 29.1 66 18.7 53 53 E 13 20 29.69 1005 10 16 N/A
5:55 pm 17:55 Sunny 84 29 64 18 51 51 E 12 19 29.68 1005 10 16 N/A
6:15 pm 18:15 Sunny 84 28.9 64 17.9 51 51 E 14 22 29.68 1005 10 16 N/A
6:35 pm 18:35 Sunny 83 28.6 65 18.5 54 54 E 14 22 29.68 1005 10 16 N/A
6:55 pm 18:55 Sunny 83 28.3 65 18.2 54 54 E 12 19 29.68 1005 10 16 N/A
7:15 pm 19:15 Sunny 82 28 66 19 58 58 E 10 17 29.70 1006 10 16 N/A
7:35 pm 19:35 Sunny 82 27.8 66 18.9 58 58 E 10 17 29.71 1006 10 16 N/A
7:55 pm 19:55 Sunny 81 27 66 18.8 61 61 ESE 10 17 29.71 1006 10 16 N/A
8:15 pm 20:15 Sunny 80 26.5 66 19 63 63 ESE 8 13 29.72 1006 10 16 N/A
8:35 pm 20:35 Sunny 79 25.9 67 19.2 67 67 E 3 6 29.72 1007 10 16 N/A
8:55 pm 20:55 Sunny 76 24.6 66 19 71 71 E 5 7 29.72 1007 10 16 N/A
9:15 pm 21:15 Clear 74 23.4 66 19 76 76 N N/A 29.72 1007 10 16 N/A
9:35 pm 21:35 Clear 71 21.5 66 19.1 86 86 N N/A 29.75 1007 10 16 N/A
9:55 pm 21:55 Clear 71 21.9 66 18.9 83 83 N N/A 29.76 1008 7 11 N/A
10:15 pm 22:15 Clear 69 20.8 66 18.9 89 89 N N/A 29.79 1009 7 11 N/A
10:35 pm 22:35 Clear 67 19.5 65 18.1 92 92 N 8 13 29.81 1009 7 11 N/A
10:55 pm 22:55 Clear 67 19.6 64 17.8 89 89 NNE 6 9 29.83 1010 10 16 N/A
11:15 pm 23:15 Clear 67 19.2 64 17.5 90 90 N N/A 29.85 1011 10 16 N/A
11:35 pm 23:35 Clear 67 19.5 64 17.5 88 88 N N/A 29.84 1010 10 16 N/A
11:55 pm 23:55 Clear 66 19.1 63 17.2 89 89 N N/A 29.84 1010 10 16 N/A

Powered by AerisWeather